Guatemala City, Guatemala

5:30 AM CST on June 27, 2017 (GMT -0600)
Guatemala City

Weather History for 78641 - November, 2013

Change the Weather History Date:

Thursday, November 14, 2013

  Actual Average Record
Temperature  
Mean Temperature 65 °F -  
Max Temperature 71 °F 71 °F - ()
Min Temperature 59 °F 56 °F - ()
Growing Degree Days 15 (Base 50)    
Moisture  
Dew Point 60 °F    
Average Humidity 81    
Maximum Humidity 94    
Minimum Humidity 56    
Precipitation  
Precipitation 0.00 in - - ()
Sea Level Pressure  
Sea Level Pressure 30.21 in    
Wind  
Wind Speed 10 mph ()    
Max Wind Speed 18 mph    
Max Gust Speed -    
Visibility 6.2 miles    
Events      
T = Trace of Precipitation, MM = Missing Value Source: Averaged Metar Reports

Daily Weather History Graph

Daily Weather History Graph

Search for Another Location

Airport or City:

Trip Planner

Search our weather history database for the weather conditions in past years. The results will help you decide how hot, cold, wet, or windy it might be!

Date:

Astronomy

Nov. 14, 2013 Rise Set
Actual Time 6:02 AM CST 5:30 PM CST
Civil Twilight 5:40 AM CST 5:52 PM CST
Nautical Twilight 5:14 AM CST 6:18 PM CST
Astronomical Twilight 4:48 AM CST 6:44 PM CST
Moon 3:30 PM CST (11/14) 3:23 AM CST (11/14)
Length of Visible Light 12h 12m
Length of Day
11h 27m
Waxing Gibbous, 92% of the Moon is Illuminated
Nov 14
Waxing Gibbous
Nov 17
Full
Nov 25
Last Quarter
Dec 2
New
Dec 9
First Quarter

Hourly Weather History & Observations

Time (CST) Temp. Dew Point Humidity Pressure Visibility Wind Dir Wind Speed Gust Speed Precip Events Conditions
12:00 AM 62.6 °F 60.8 °F 94% 30.27 in 6.2 mi North 9.2 mph - N/A   Scattered Clouds
1:00 AM 62.6 °F 59.0 °F 88% 30.24 in 6.2 mi North 6.9 mph - N/A   Partly Cloudy
2:00 AM 60.8 °F 59.0 °F 94% 30.24 in 6.2 mi North 9.2 mph - N/A   Scattered Clouds
3:00 AM 60.8 °F 59.0 °F 94% 30.24 in 6.2 mi North 9.2 mph - N/A   Light Drizzle
3:10 AM - - N/A% - 6.2 mi NNE 9.2 mph - N/A   Scattered Clouds
4:00 AM 60.8 °F 59.0 °F 94% 30.21 in 6.2 mi NNE 11.5 mph - N/A   Mostly Cloudy
5:00 AM 60.8 °F 59.0 °F 94% 30.21 in 6.2 mi NNE 11.5 mph - N/A   Scattered Clouds
6:00 AM 60 °F 58 °F 92% 29.97 in 25 mi North 11.5 mph - -   Partly Cloudy
6:00 AM 60.8 °F 59.0 °F 94% 30.24 in 6.2 mi North 11.5 mph - N/A   Scattered Clouds
7:00 AM 60.8 °F 59.0 °F 94% 30.24 in 6.2 mi NNE 9.2 mph - N/A   Mostly Cloudy
8:00 AM 64.4 °F 57.2 °F 77% 30.27 in 6.2 mi North 11.5 mph - N/A   Mostly Cloudy
9:00 AM 68.0 °F 57.2 °F 68% 30.27 in 6.2 mi North 16.1 mph - N/A   Overcast
10:00 AM 68.0 °F 57.2 °F 68% 30.27 in 6.2 mi North 16.1 mph - N/A   Mostly Cloudy
11:00 AM 68.0 °F 59.0 °F 73% 30.27 in 6.2 mi North 16.1 mph - N/A   Mostly Cloudy
12:00 PM 71 °F 59 °F 56% 29.93 in 25 mi North 18.4 mph - -   Mostly Cloudy
12:00 PM 69.8 °F 59.0 °F 68% 30.24 in 6.2 mi North 18.4 mph - N/A   Mostly Cloudy
1:00 PM 71.6 °F 59.0 °F 64% 30.21 in 6.2 mi North 16.1 mph - N/A   Mostly Cloudy
2:00 PM 71.6 °F 60.8 °F 69% 30.21 in 6.2 mi North 13.8 mph - N/A   Mostly Cloudy
3:00 PM 71.6 °F 60.8 °F 69% 30.18 in 6.2 mi North 13.8 mph - N/A   Scattered Clouds
4:00 PM 71.6 °F 60.8 °F 69% 30.18 in 6.2 mi North 13.8 mph - N/A   Scattered Clouds
5:00 PM 71.6 °F 60.8 °F 69% 30.18 in 6.2 mi North 16.1 mph - N/A   Mostly Cloudy
6:00 PM 68.0 °F 62.6 °F 83% 30.18 in 6.2 mi NNE 11.5 mph - N/A   Mostly Cloudy
7:00 PM 66.2 °F 60.8 °F 83% 30.24 in 6.2 mi NNE 13.8 mph - N/A   Mostly Cloudy
8:00 PM 66.2 °F 60.8 °F 83% 30.24 in 6.2 mi NE 9.2 mph - N/A   Scattered Clouds
9:00 PM 64.4 °F 60.8 °F 88% 30.27 in 6.2 mi North 11.5 mph - N/A   Mostly Cloudy
10:00 PM 64.4 °F 60.8 °F 88% 30.27 in 6.2 mi NNE 6.9 mph - N/A   Overcast
11:00 PM 62.6 °F 60.8 °F 94% 30.27 in 6.2 mi North 9.2 mph - N/A   Scattered Clouds